ZHANGZHENG-1 (CSES) (43194 NORAD) Tracking and Keplerian Element Data

This shows tracking and keplerian element data for the satellite.

Feedback or suggestion? Click here.




ElementValue
Catalog43194
NameZHANGZHENG-1 (CSES)
Epoch Orbit4803
Epoch Day349.24325275
Epoch Year2018
RAAN113.7162
Inclination97.3721
Eccentricity0.0014766
Argument of Perigee236.6754
Mean Anonmoly123.3069
Mean Motion15.21013097
Decay Rate1.096E-05
L11 43194U 18015C 18349.24325275 .00001096 00000-0 52379-4 0 9997
L22 43194 97.3721 113.7162 0014766 236.6754 123.3069 15.21013097 48038

Live tracking and technical data element details for ZHANGZHENG-1 (CSES) (NORAD 43194). ZHANGZHENG-1 (CSES) can be tracked NOW for your location showing map with azimuth and elevation plus other details from your city location.

Track the satellite on the map from your city or location and see movement details for azimuth, elevation, latitude, longitude, range, height, and movement on the map or in text.







IsCatalogInMostPopularTable: catalog: 43194, numindb: 130
Update: records affected: 1



GetName: 43194 ZHANGZHENG-1 (CSES)

Hit Count: updated at: Sun, 16 Dec 2018 03:31:20 GMT